Flag for Norway Weather past 2 weeks in Spydeberg, Norway

43 °F


Feels Like: 43 °F
Forecast: 38 / 54 °F
Wind: 2 mph from Northeast

Location: Rygge

Current Time: Oct 4, 2015 at 10:42:19 PM

Latest Report: Oct 4, 2015 at 9:50 PM

Visibility: 10 mi

Pressure: 29.95 "Hg

Humidity: 100%

Dew point: 43 °F

Location of SpydebergLocation

Historic Weather in Spydeberg — Graph


Spydeberg temperature yesterday

Maximum temperature yesterday: 59 °F (at 1:20 PM)
Minimum temperature yesterday: 41 °F (at 4:50 AM)
Average temperature yesterday: 51 °F

Past Weeks' High & Low Weather Summary

High66 °F (Sep 30, 12:50 PM)100% (Sep 21, 2:20 AM)30.72 "Hg (Sep 21, 2:20 AM)
Low36 °F (Sep 27, 6:20 AM)45% (Sep 26, 4:50 PM)29.62 "Hg (Sep 22, 5:50 PM)
Average52 °F81%30.09 "Hg
* Reported Sep 19 9:20 PM — Oct 4 9:20 PM, Spydeberg, Weather by CustomWeather, © 2015

Note: Actual official high and low records may vary slightly from our data, if they occured in-between our weather recording intervals... More about our weather records


Spydeberg weather history for previous 24 hours

Time TempWeatherWind HumidityBarometerVisibility
9:20 PM
Sun, Oct 4
45 °FClear.2 mph93%29.95 "Hg10 mi
8:50 PM45 °FClear.1 mph87%29.95 "Hg10 mi
8:20 PM46 °FClear.1 mph87%29.95 "Hg10 mi
7:50 PM48 °FClear.3 mph82%29.95 "Hg10 mi
7:20 PM52 °FPassing clouds.6 mph72%29.92 "HgN/A
6:50 PM52 °FSunny.3 mph77%29.92 "Hg10 mi
6:20 PM55 °FSunny.1 mph63%29.92 "Hg10 mi
5:50 PM57 °FSunny.1 mph63%29.92 "Hg10 mi
5:20 PM57 °FSunny.1 mph59%29.92 "Hg10 mi
4:50 PM57 °FSunny.1 mph59%29.92 "Hg10 mi
4:20 PM57 °FSunny.No wind63%29.92 "Hg10 mi
3:50 PM54 °FSunny.1 mph77%29.92 "Hg10 mi
3:20 PM54 °FPassing clouds.3 mph77%29.92 "HgN/A
2:50 PM54 °FSunny.3 mph72%29.92 "Hg10 mi
2:20 PM54 °FPassing clouds.3 mph72%29.92 "HgN/A
1:50 PM52 °FSunny.1 mph82%29.92 "Hg10 mi
1:20 PM50 °FPassing clouds.3 mph88%29.92 "HgN/A
12:50 PM50 °FSunny.2 mph88%29.92 "Hg10 mi
12:20 PM50 °FFog.2 mph88%29.92 "HgN/A
11:50 AM48 °FFog.3 mph94%29.92 "HgN/A
11:20 AM46 °FFog.2 mph100%29.92 "HgN/A
10:50 AM46 °FFog.3 mph100%29.92 "HgN/A
10:20 AM46 °FPartly sunny.2 mph100%29.92 "Hg2 mi
9:50 AM46 °FFog.3 mph100%29.92 "Hg0 mi
9:20 AM46 °FFog.3 mph100%29.89 "Hg0 mi
8:50 AM46 °FFog.2 mph93%29.89 "Hg0 mi
8:20 AM45 °FFog.1 mph100%29.89 "Hg0 mi
7:50 AM45 °FFog.2 mph100%29.89 "Hg0 mi
7:20 AM45 °FFog.2 mph100%29.89 "Hg0 mi
6:50 AM45 °FFog.3 mph100%29.89 "Hg0 mi
6:20 AM45 °FFog.3 mph100%29.89 "Hg0 mi
5:50 AM45 °FFog.3 mph100%29.89 "Hg0 mi
5:20 AM45 °FFog.2 mph100%29.89 "Hg0 mi
4:50 AM45 °FQuite cool.5 mph100%29.89 "Hg0 mi
4:20 AM43 °FFog.3 mph100%29.89 "Hg0 mi
3:50 AM43 °FPassing clouds.3 mph100%29.89 "Hg1 mi
3:20 AM45 °FLight fog.2 mph100%29.89 "Hg0 mi
2:50 AM46 °FFog.2 mph93%29.89 "Hg0 mi
2:20 AM45 °FQuite cool.2 mph93%29.89 "Hg0 mi
1:50 AM48 °FPassing clouds.3 mph100%29.89 "Hg2 mi
1:20 AM50 °FFog.3 mph94%29.89 "Hg1 mi
12:50 AM50 °FPassing clouds.3 mph94%29.89 "HgN/A
12:20 AM50 °FPassing clouds.3 mph94%29.92 "HgN/A
11:50 PM
Sat, Oct 3
52 °FPassing clouds.5 mph94%29.92 "HgN/A
11:20 PM54 °FPartly cloudy.7 mph88%29.92 "HgN/A
10:50 PM54 °FPassing clouds.7 mph88%29.92 "HgN/A
10:20 PM52 °FPartly cloudy.5 mph94%29.92 "HgN/A
Weather by CustomWeather, © 2015

See weather overviewHow to use our weather pages